Regional Weather Roundup
Issued by NWS

Home | Current Version | Previous Version | Graphics & Text | Print | Product List | Glossary On
Versions: 1 2 3 4 5 6 7 8 9 10 11 12 13 14 15 16 17 18 19 20 21 22 23 24 25 26 27 28 29 30 31 32 33 34 35 36 37 38 39 40 41 42 43 44 45 46 47 48 49 50
000
ASUS43 KFSD 241610
RWRSD

WEATHER ROUNDUP FOR SOUTH DAKOTA
NATIONAL WEATHER SERVICE SIOUX FALLS SD
1100 AM CDT SUN SEP 24 2017

NOTE: "FAIR" INDICATES FEW OR NO CLOUDS BELOW 12,000 FEET WITH NO
SIGNIFICANT WEATHER AND/OR OBSTRUCTIONS TO VISIBILITY.


SDZ001>005-009-010-012>017-241700-
NORTHWEST AND NORTH CENTRAL SOUTH DAKOTA

CITY           SKY/WX    TMP DP  RH WIND       PRES   REMARKS
BUFFALO          N/A     45  42  89 N14       29.99S
FAITH            N/A     47  46  97 N17       30.01R
MOBRIDGE       CLOUDY    51  48  89 N17G24    29.91F
$$

SDZ012>016-024>037-041>051-057-063-072>074-241700-
SOUTHWEST AND SOUTH CENTRAL SOUTH DAKOTA

CITY           SKY/WX    TMP DP  RH WIND       PRES   REMARKS
RAPID CTY ARPT CLOUDY    46  43  87 N18       30.03S
PIERRE         LGT RAIN  51  49  92 N16       29.92F
CUSTER         CLOUDY    46  36  68 E8        30.02R
ELLSWORTH AFB  CLOUDY    46  46 100 N16       30.03R
PHILIP         CLOUDY    49  47  93 N13       29.99R
PINE RIDGE     CLOUDY    46  45  96 N12       30.02S
SPEARFISH        N/A     43  43 100 NW9       30.06R FOG
WINNER         LGT RAIN  53  51  93 NW15      29.96R
$$

SDZ004>011-016>023-039-040-241700-
NORTHEAST SOUTH DAKOTA

CITY           SKY/WX    TMP DP  RH WIND       PRES   REMARKS
ABERDEEN       LGT RAIN  53  52  96 N13       29.86S
WATERTOWN      CLOUDY    65  63  93 SW12      29.85R
BROOKINGS      CLOUDY    72  66  81 S15       29.86S
SISSETON         N/A     63  63 100 S7        29.83R
$$

SDZ017-020-022-023-036>040-048>070-241700-
SOUTHEAST SOUTH DAKOTA

CITY           SKY/WX    TMP DP  RH WIND       PRES   REMARKS
SIOUX FALLS    PTSUNNY   76  67  73 S14       29.86S
HURON          RAIN      56  55  97 W9        29.88R FOG
CHAMBERLAIN    RAIN      56  56 100 NW9       29.92R
MITCHELL       CLOUDY    58  56  93 NW8       29.90R
YANKTON        CLOUDY    69  63  81 NW13      29.88R
$$

ABBREVIATIONS USED IN REMARKS
   TC - TEMPERATURE IN CELSIUS
  WCI - WIND CHILL INDEX
   HX - HEAT INDEX
  VSB - VISIBILITY





USA.gov is the U.S. government's official web portal to all federal, state and local government web resources and services.